Regional Weather Roundup
Issued by NWS

Home | Current Version | Previous Version | Text Only | Print | Product List | Glossary On
Versions: 1 2 3 4 5 6 7 8 9 10 11 12 13 14 15 16 17 18 19 20 21 22 23 24 25 26 27 28 29 30 31 32 33 34 35 36 37 38 39 40 41 42 43 44 45 46 47 48 49 50
408
ASUS43 KLMK 290510
RWRKY
KENTUCKY REGIONAL WEATHER ROUNDUP
NATIONAL WEATHER SERVICE LOUISVILLE KY
100 AM EDT WED JUN 29 2016

NOTE "FAIR" INDICATES FEW OR NO CLOUDS BELOW 12,000 FEET
WITH NO SIGNIFICANT WEATHER AND/OR OBSTRUCTIONS TO VISIBILITY.

KYZ001>023-026-027-061>063-070>075-290600-
WESTERN AND SOUTH CENTRAL KENTUCKY

CITY           SKY/WX    TMP DP  RH WIND       PRES   REMARKS
PADUCAH        CLEAR     73  63  70 N6        30.04S
HENDERSON      CLEAR     72  61  68 NE5       30.06S
OWENSBORO      CLEAR     73  62  68 NE6       30.07R
HOPKINSVILLE   CLEAR     71  66  83 N5        30.04R
BOWLING GREEN  CLEAR     76  62  62 N5        30.04S
GLASGOW        MOCLDY    74  61  63 N7        30.04R
$$

KYZ024-025-028>034-038-045-046-053-290600-
NORTH CENTRAL KENTUCKY

CITY           SKY/WX    TMP DP  RH WIND       PRES   REMARKS
LOUISVILLE/SDF PTCLDY    71  54  54 N7        30.07R
LOUISVILLE/LOU CLEAR     70  56  61 NE3       30.07S
FORT KNOX      CLEAR     68  58  69 N5        30.06R
$$

KYZ035>037-039>044-047>052-055>060-089>105-290600-
NORTHEAST KENTUCKY

CITY           SKY/WX    TMP DP  RH WIND       PRES   REMARKS
LEXINGTON      PTCLDY    67  57  70 N7        30.06R
COVINGTON      CLEAR     62  54  74 N8        30.07S
FRANKFORT      PTCLDY    68  56  65 NW3       30.05S
$$

KYZ054-064>069-076>088-106>120-290600-
SOUTHEAST KENTUCKY

CITY           SKY/WX    TMP DP  RH WIND       PRES   REMARKS
JACKSON        MOCLDY    72  59  63 VRB3      30.03S
LONDON         PTCLDY    71  61  70 N3        30.03S
SOMERSET       CLEAR     72  59  64 N9        30.04S
MIDDLESBORO    PTCLDY    67  65  96 CALM      30.02F
MONTICELLO     CLEAR    N/A N/A N/A NW8       30.05
$$





USA.gov is the U.S. government's official web portal to all federal, state and local government web resources and services.